Weather History for Air Force Academy, CO

Change the Weather History Date:

Saturday, July 20, 2013

  Actual Average Record
Temperature  
Mean Temperature 70 °F -  
Max Temperature 82 °F 81 °F 93 °F (1998)
Min Temperature 59 °F 53 °F 50 °F (2001)
Cooling Degree Days 6    
Growing Degree Days 20 (Base 50)    
Moisture  
Dew Point 55 °F    
Average Humidity 64    
Maximum Humidity 96    
Minimum Humidity 36    
Precipitation  
Precipitation 0.15 in - - ()
Sea Level Pressure  
Sea Level Pressure 30.01 in    
Wind  
Wind Speed 8 mph (SSE)    
Max Wind Speed 21 mph    
Max Gust Speed 31 mph    
Visibility 10 miles    
Events Rain , Thunderstorm    
Averages and records for this station are not official NWS values.
T = Trace of Precipitation, MM = Missing Value Source: NWS Daily Summary

Daily Weather History Graph

Daily Weather History Graph

Search for Another Location

Airport:

Trip Planner

Search our weather history database for the weather conditions in past years. The results will help you decide how hot, cold, wet, or windy it might be!

Date:

Astronomy

Jul. 20, 2013 Rise Set
Actual Time 5:50 AM MDT 8:20 PM MDT
Civil Twilight 5:19 AM MDT 8:51 PM MDT
Nautical Twilight 4:41 AM MDT 9:29 PM MDT
Astronomical Twilight 3:58 AM MDT 10:11 PM MDT
Moon 6:26 PM MDT (7/20) 3:32 AM MDT (7/20)
Length of Visible Light 15h 32m
Length of Day
14h 30m
Waxing Gibbous, 94% of the Moon is Illuminated
Jul 20
Waxing Gibbous
Jul 22
Full
Jul 29
Last Quarter
Aug 6
New
Aug 14
First Quarter

Hourly Weather History & Observations

Time (MDT) Temp. Heat Index Dew Point Humidity Pressure Visibility Wind Dir Wind Speed Gust Speed Precip Events Conditions
12:58 AM 59.9 °F - 55.8 °F 86% 30.00 in 10.0 mi South 5.8 mph - N/A   Clear
1:38 AM 60.8 °F - 57.2 °F 88% 30.26 in 10.0 mi South 10.4 mph - N/A   Mostly Cloudy
1:58 AM 60.3 °F - 57.7 °F 91% 29.99 in 10.0 mi SSW 4.6 mph - N/A   Mostly Cloudy
2:58 AM 60.1 °F - 58.3 °F 94% 29.96 in 10.0 mi South 3.5 mph - N/A   Overcast
3:23 AM 60.8 °F - 57.2 °F 88% 30.22 in 10.0 mi SSE 4.6 mph - N/A   Overcast
3:58 AM 60.1 °F - 58.1 °F 93% 29.93 in 10.0 mi South 5.8 mph - N/A   Overcast
4:08 AM 59.0 °F - 57.2 °F 94% 30.20 in 10.0 mi SSE 4.6 mph - N/A   Overcast
4:58 AM 59.2 °F - 57.9 °F 96% 29.94 in 10.0 mi SSE 2.3 mph - N/A   Overcast
5:03 AM 59.0 °F - 57.2 °F 94% 30.19 in 10.0 mi SSE 2.3 mph - N/A   Overcast
5:58 AM 59.4 °F - 57.0 °F 92% 29.94 in 10.0 mi WNW 1.2 mph - N/A   Overcast
6:58 AM 59.4 °F - 56.5 °F 90% 29.94 in 10.0 mi East 2.3 mph - N/A   Overcast
7:23 AM 60.8 °F - 57.2 °F 88% 30.17 in 10.0 mi Variable 2.3 mph - N/A   Scattered Clouds
7:58 AM 61.7 °F - 56.5 °F 83% 29.92 in 10.0 mi North 3.5 mph - N/A   Clear
8:58 AM 66.7 °F - 55.4 °F 67% 29.90 in 10.0 mi North 2.3 mph - N/A   Clear
9:58 AM 74.7 °F - 52.9 °F 46% 29.86 in 10.0 mi Calm Calm - N/A   Clear
10:58 AM 80.2 °F 80.2 °F 54.7 °F 41% 29.86 in 10.0 mi SSE 9.2 mph - N/A   Clear
11:58 AM 82.0 °F 81.4 °F 55.0 °F 39% 29.84 in 10.0 mi South 15.0 mph 18.4 mph N/A   Clear
12:58 PM 82.2 °F 81.4 °F 54.0 °F 38% 29.83 in 10.0 mi SSW 13.8 mph - N/A   Partly Cloudy
1:51 PM 80.6 °F 80.5 °F 55.4 °F 42% 30.12 in 10.0 mi SSE 16.1 mph - N/A   Scattered Clouds
1:58 PM 81.3 °F 81.1 °F 55.9 °F 42% 29.83 in 10.0 mi South 11.5 mph - N/A   Mostly Cloudy
2:30 PM 77.0 °F - 55.4 °F 47% 30.13 in 10.0 mi South 13.8 mph - N/A Rain Light Rain
2:48 PM 78.8 °F - 55.4 °F 44% 30.13 in 10.0 mi South 20.7 mph - N/A   Partly Cloudy
2:58 PM 79.9 °F - 55.9 °F 44% 29.85 in 10.0 mi South 17.3 mph - 0.00 in   Scattered Clouds
3:02 PM 78.8 °F - 55.4 °F 44% 30.13 in 10.0 mi SSW 17.3 mph - N/A Thunderstorm Scattered Clouds
3:04 PM 78.8 °F - 55.4 °F 44% 30.13 in 10.0 mi SSW 15.0 mph - N/A Thunderstorm Thunderstorm
3:19 PM 77.0 °F - 55.4 °F 47% 30.12 in 10.0 mi South 17.3 mph - N/A Rain , Thunderstorm Light Rain
3:30 PM 75.2 °F - 55.4 °F 50% 30.10 in 10.0 mi South 13.8 mph - N/A   Partly Cloudy
3:58 PM 79.2 °F - 52.0 °F 39% 29.82 in 10.0 mi SSW 6.9 mph - 0.01 in   Partly Cloudy
4:58 PM 79.9 °F - 50.9 °F 36% 29.82 in 10.0 mi ESE 11.5 mph 19.6 mph N/A   Partly Cloudy
5:15 PM 80.6 °F - 51.8 °F 37% 30.09 in 10.0 mi SSE 15.0 mph - N/A   Clear
5:58 PM 79.9 °F - 51.3 °F 37% 29.80 in 10.0 mi South 11.5 mph - N/A   Clear
6:58 PM 79.2 °F - 52.7 °F 40% 29.81 in 10.0 mi South 12.7 mph - N/A   Clear
7:58 PM 75.7 °F - 52.9 °F 45% 29.83 in 10.0 mi SE 10.4 mph - N/A Thunderstorm Clear
8:58 PM 73.4 °F - 52.3 °F 48% 29.88 in 10.0 mi NNW 9.2 mph - N/A   Mostly Cloudy
8:59 PM 73.4 °F - 53.6 °F 50% 30.16 in 10.0 mi North 18.4 mph 25.3 mph N/A Rain Light Rain
9:03 PM 71.6 °F - 57.2 °F 60% 30.17 in 7.0 mi NNE 18.4 mph 31.1 mph N/A Rain Light Rain
9:07 PM 66.2 °F - 57.2 °F 73% 30.18 in 4.0 mi ENE 18.4 mph 31.1 mph N/A Rain Heavy Rain
9:12 PM 64.4 °F - 57.2 °F 77% 30.18 in 5.0 mi ENE 12.7 mph - N/A Rain Light Rain
9:20 PM 62.6 °F - 57.2 °F 82% 30.19 in 10.0 mi NE 15.0 mph - N/A   Overcast
9:23 PM 62.6 °F - 55.4 °F 77% 30.19 in 10.0 mi NNE 17.3 mph 21.9 mph N/A   Overcast
9:58 PM 64.8 °F - 56.3 °F 74% 29.94 in 10.0 mi NNE 5.8 mph - 0.14 in   Scattered Clouds
10:58 PM 61.5 °F - 53.4 °F 75% 29.93 in 10.0 mi SSW 6.9 mph - N/A   Clear
11:58 PM 60.4 °F - 54.7 °F 81% 29.88 in 10.0 mi SE 3.5 mph - N/A   Clear